Location: Ferchesar
(52.6477°N, 12.4298°E)
Time: 17:10:15
(UTC+01:00)

Vanguard 1 - Pass Details

Date: 09 December 2021
Orbit: 652 x 3830 km, 34.2° (Epoch: 22 January)

Event Time Altitude Azimuth Distance (km) Brightness Sun altitude
Rises 00:52:48 0° 249° (WSW) 7,268 - -58.7°
Reaches altitude 10° 00:57:37 10° 243° (WSW) 6,522 - -58.4°
Maximum altitude 01:18:10 46° 180° (S) 4,587 - -56.9°
Exits shadow 01:29:08 30° 133° (SE) 5,064 13.4 -55.9°
Drops below altitude 10° 01:37:06 10° 116° (ESE) 6,059 14.1 -55.1°
Sets 01:41:21 0° 111° (ESE) 6,739 14.5 -54.7°
